Tracking 19242 objects as of 17-Aug-2018
HD Live streaming from Space Station
objects crossing your sky now

COSMOS 1174

Track COSMOS 1174 now!
10-day predictions
COSMOS 1174 is classified as:


NORAD ID: 11765
Int'l Code: 1980-030A
Perigee: 381.8 km
Apogee: 1,156.1 km
Inclination: 66.1 °
Period: 100.1 minutes
Semi major axis: 7139 km
RCS: 4.5129 m2 (large)
Launch date: April 18, 1980
Source: Commonwealth of Independent States (former USSR) (CIS)
Launch site: TYURATAM MISSILE AND SPACE COMPLEX (TTMTR)
aabbcc
Your satellite tracking list
Your tracking list is empty




NASA's NSSDC Master Catalog

Two Line Element Set (TLE):
1 11765U 80030A   18228.94425996 +.00000385 +00000-0 +31059-4 0  9998
2 11765 066.0855 206.5444 0542209 054.3140 310.7180 14.39003838965566
Source of the keplerian elements: AFSPC